Regional Weather Roundup
Issued by NWS

Home | Current Version | Previous Version | Text Only | Print | Product List | Glossary On
Versions: 1 2 3 4 5 6 7 8 9 10 11 12 13 14 15 16 17 18 19 20 21 22 23 24 25 26 27
000
ASUS42 KFFC 310003
RWRGA
WEATHER ROUNDUP FOR GEORGIA
NATIONAL WEATHER SERVICE PEACHTREE CITY GA
800 PM EDT SAT JUL 30 2016

NOTE: "FAIR" INDICATES FEW OR NO CLOUDS BELOW 12,000 FEET WITH NO
SIGNIFICANT WEATHER AND/OR OBSTRUCTIONS TO VISIBILITY.

* = USE WITH CAUTION. THE STATIONS MARKED WITH AN ASTERISK MAY NOT
REPORT WEATHER SUCH AS PRECIPITATION, FOG, OR THUNDER AND ARE NOT
QUALITY CONTROLLED BY NWS.

THE REMARK "TC" DENOTES TEMPERATURE READING IN DEGREES CELSIUS.

GAZ001>058-310100-
NORTH GEORGIA

CITY           SKY/WX    TMP DP  RH WIND       PRES   REMARKS
ATLANTA        CLOUDY    78  72  81 SW8       30.01S
6HR MIN TEMP:  74; 6HR MAX TEMP:  86; 6HR PCP: TRACE;

ATHENS         PTCLDY    86  71  60 SW3       29.99S HX  91
6HR MIN TEMP:  79; 6HR MAX TEMP:  94; 6HR PCP:  0.07;

CHAMBLEE       CLOUDY    80  71  74 SW9       30.01R
6HR MIN TEMP:  76; 6HR MAX TEMP:  90;

PEACHTREE CITY CLOUDY    79  72  79 CALM      30.02S
6HR MIN TEMP:  76; 6HR MAX TEMP:  87; 6HR PCP: TRACE;

ROME           MOCLDY    82  73  74 S7        29.98R
6HR MIN TEMP:  82; 6HR MAX TEMP:  93; 6HR PCP: TRACE;

WEST ATLANTA   CLOUDY    79  71  76 SW3       30.00S
6HR MIN TEMP:  77; 6HR MAX TEMP:  86; 6HR PCP: TRACE;

GAINESVILLE    MOCLDY    84  69  60 SW6       30.03R
6HR MIN TEMP:  82; 6HR MAX TEMP:  89;

CARTERSVILLE   CLOUDY    81  72  74 VRB3      30.01R
6HR MIN TEMP:  81; 6HR MAX TEMP:  92;



CITY           SKY/WX    TMP DP  RH WIND       PRES   REMARKS
DALTON*        CLOUDY    82  72  69 CALM      29.99R
LAWRENCEVILLE* CLEAR     82  73  74 SW8       30.00S
KENNESAW*      CLOUDY    81  72  74 SW3       29.97R
CANTON*        CLOUDY    82  64  54 SW5       30.03R
BLAIRSVILLE*     N/A    N/A N/A N/A MISG      30.05R
$$

GAZ059>098-102>109-310100-
CENTRAL GEORGIA

CITY           SKY/WX    TMP DP  RH WIND       PRES   REMARKS
AUGUSTA-BUSH   TSTM      76  72  87 S3        29.97F
6HR MIN TEMP:  75; 6HR MAX TEMP:  94; 6HR PCP:  0.13;

AUGUSTA-DANIEL LGT RAIN  75  71  87 VRB3      29.98F
6HR MIN TEMP:  74; 6HR MAX TEMP:  93; 6HR PCP:  0.48;

COLUMBUS       CLOUDY    82  70  66 SW9       30.01S
6HR MIN TEMP:  81; 6HR MAX TEMP:  94; 6HR PCP: TRACE;

MACON          CLOUDY    82  71  69 SW3       29.99F
6HR MIN TEMP:  76; 6HR MAX TEMP:  93; 6HR PCP:  0.62;

ROBINS AFB     CLOUDY    82  73  72 NE3       29.98S


CITY           SKY/WX    TMP DP  RH WIND       PRES   REMARKS
LAGRANGE*      CLOUDY    81  80  96 CALM      30.01S HX  91
MILLEDGEVILLE* LGT RAIN  73  73 100 CALM      29.99S
$$

GAZ099>101-110>166-310100-
SOUTH GEORGIA

CITY           SKY/WX    TMP DP  RH WIND       PRES   REMARKS
SAVANNAH       PTCLDY    89  73  59 S13       29.98R HX  97
6HR MIN TEMP:  89; 6HR MAX TEMP: 100;

VALDOSTA       CLEAR     86  72  62 VRB5      29.99S HX  92
6HR MIN TEMP:  86; 6HR MAX TEMP:  96;

ALMA           CLEAR     88  72  58 CALM      29.97R HX  94
6HR MIN TEMP:  88; 6HR MAX TEMP:  99;

ST SIMONS      CLEAR     87  76  69 S13       29.99R HX  97
6HR MIN TEMP:  87; 6HR MAX TEMP:  94;

ALBANY         LGT RAIN  87  73  62 W10       30.01R HX  94
HUNTER AFB     CLEAR     88  78  71 S10       29.97R HX 101
MOODY AFB      CLEAR     89  73  58 SW9       29.99R HX  97
BRUNSWICK      CLEAR     90  77  66 S10       30.00S HX 102


CITY           SKY/WX    TMP DP  RH WIND       PRES   REMARKS
BAINBRIDGE*    PTCLDY    86  72  62 W3        30.01R HX  92
MOULTRIE*      PTCLDY    86  72  62 SW6       30.02R HX  92
VIDALIA*       CLOUDY    91  70  49 NW3       29.99R HX  97
WAYCROSS*      PTCLDY    97  73  45 S6        29.98R HX 106
DOUGLAS*       CLEAR     90  68  48 SW3       29.99S HX  93
$$




USA.gov is the U.S. government's official web portal to all federal, state and local government web resources and services.